Location: Broadmoor
(37.6867°N, 122.4828°W)
Time: 06:03:11
(UTC+00:00)

Cosmos 2219 Rocket - Pass Details

Date: 03 August 2024
Orbit: 826 x 846 km, 71.0° (Epoch: 14 September)

Event Time Altitude Azimuth Distance (km) Brightness Sun altitude
Exits shadow 12:12:05 11° 267° (W) 2,358 4.0 -12.0°
Maximum altitude 12:15:27 18° 306° (NW) 1,947 3.9 -11.4°
Drops below altitude 10° 12:19:17 10° 349° (N) 2,473 4.9 -10.8°
Sets 12:22:34 0° 8° (N) 3,414 6.0 -10.2°
